EW6571 Weather Reports


Display with metric or nautical units.
time (UTC)temp
F
wind
direction
speed
MPH
gust
MPH
rain 1hr
in
rain 24hr
in
rain mn
in
humidity
%
barometer
mb
20260507113058 39 220 0.0 3.0 0.00 0.00 0.00 71 1012.6
20260507111600 39 220 0.0 2.0 0.00 0.00 0.00 71 1012.7
20260507110054 39 220 0.0 3.0 0.00 0.00 0.00 70 1012.9
20260507104552 39 220 0.0 0.0 0.00 0.00 0.00 70 1013.0
20260507103051 40 220 1.0 4.0 0.00 0.00 0.00 67 1012.8
20260507101548 40 223 0.0 4.0 0.00 0.00 0.00 66 1012.8
20260507100043 41 224 0.0 4.0 0.00 0.00 0.00 64 1013.0
20260507094552 44 172 0.0 0.0 0.00 0.00 0.00 57 1012.9
20260507093038 45 172 1.0 9.0 0.00 0.00 0.00 55 1013.0
20260507091537 44 189 3.0 8.0 0.00 0.00 0.00 60 1012.9
20260507090036 43 188 4.0 6.0 0.00 0.00 0.00 62 1013.0
20260507084538 44 173 0.0 0.0 0.00 0.00 0.00 61 1013.0
20260507083030 46 173 0.0 2.0 0.00 0.00 0.00 54 1013.2
20260507081531 48 171 0.0 4.0 0.00 0.00 0.00 51 1013.3
20260507080027 46 185 0.0 1.0 0.00 0.00 0.00 55 1013.3
20260507074526 48 168 0.0 0.0 0.00 0.00 0.00 52 1013.6
20260507073024 48 159 0.0 0.0 0.00 0.00 0.00 52 1013.7
20260507071525 49 159 0.0 0.0 0.00 0.00 0.00 49 1014.0
20260507070028 48 159 2.0 6.0 0.00 0.00 0.00 52 1014.3
20260507064517 46 174 0.0 1.0 0.00 0.00 0.00 56 1014.2
20260507063011 46 174 0.0 0.0 0.00 0.00 0.00 58 1014.3
20260507061510 46 174 0.0 1.0 0.00 0.00 0.00 56 1014.2
20260507060107 46 174 0.0 0.0 0.00 0.00 0.00 58 1014.4
20260507054507 47 174 0.0 0.0 0.00 0.00 0.00 58 1014.3
20260507053006 47 174 0.0 0.0 0.00 0.00 0.00 57 1014.1
20260507051506 48 174 0.0 4.0 0.00 0.00 0.00 52 1014.2
20260507050015 50 154 1.0 7.0 0.00 0.00 0.00 46 1014.3
20260507044507 48 136 1.0 7.0 0.00 0.00 0.00 51 1014.3
20260507043004 47 230 0.0 3.0 0.00 0.00 0.00 54 1014.5
20260507041504 47 230 1.0 4.0 0.00 0.00 0.00 54 1014.5
20260507040004 46 232 0.0 3.0 0.00 0.00 0.00 57 1014.7
20260507034504 46 272 0.0 1.0 0.00 0.00 0.00 54 1014.7
20260507033003 47 272 0.0 1.0 0.00 0.00 0.00 53 1014.4
20260507031502 47 272 0.0 1.0 0.00 0.00 0.00 53 1014.3
20260507030001 48 272 0.0 0.0 0.00 0.00 0.00 52 1014.4
20260507024502 49 272 0.0 0.0 0.00 0.00 0.00 50 1014.1
20260507023001 50 272 0.0 0.0 0.00 0.00 0.00 49 1014.3
20260507021601 52 272 0.0 2.0 0.00 0.00 0.00 44 1014.2
20260507020104 53 272 0.0 9.0 0.00 0.00 0.00 40 1014.2
20260507014605 55 300 8.0 14.0 0.00 0.00 0.00 39 1014.2
20260507013159 56 263 8.0 12.0 0.00 0.00 0.00 38 1013.9
20260507011559 57 281 9.0 14.0 0.00 0.00 0.00 36 1013.9
20260507010057 57 304 9.0 17.0 0.00 0.00 0.00 37 1014.0
20260507004557 55 273 9.0 16.0 0.00 0.00 0.00 38 1013.9
20260507003101 57 296 10.0 16.0 0.00 0.00 0.00 37 1013.7
20260507001602 57 321 10.0 20.0 0.00 0.00 0.00 34 1013.8
20260507000055 58 279 10.0 15.0 0.00 0.00 0.00 36 1013.7
20260506234604 56 300 11.0 20.0 0.00 0.00 0.00 35 1013.7
20260506233056 58 303 3.0 11.0 0.00 0.00 0.00 31 1013.5
20260506231555 59 306 5.0 18.0 0.00 0.00 0.00 30 1013.5
20260506230054 59 324 10.0 17.0 0.00 0.00 0.00 29 1013.7
20260506224550 58 304 2.0 17.0 0.00 0.00 0.00 27 1013.8
20260506223048 57 284 11.0 16.0 0.00 0.00 0.00 27 1014.0
20260506221548 58 267 14.0 18.0 0.00 0.00 0.00 29 1013.9
20260506220050 58 294 10.0 19.0 0.00 0.00 0.00 30 1014.0
20260506214547 57 40 0.0 16.0 0.00 0.00 0.00 29 1014.2
20260506213043 57 302 5.0 10.0 0.00 0.00 0.00 29 1014.4
20260506211539 56 301 5.0 13.0 0.00 0.00 0.00 30 1014.4
20260506210038 55 318 3.0 12.0 0.00 0.00 0.00 31 1014.4
20260506204540 55 292 3.0 14.0 0.00 0.00 0.00 30 1014.5
20260506203039 54 315 4.0 8.0 0.00 0.00 0.00 31 1014.5
20260506201536 53 229 0.0 6.0 0.00 0.00 0.00 31 1014.7
20260506200027 53 42 3.0 9.0 0.00 0.00 0.00 32 1014.8
20260506194525 52 340 2.0 6.0 0.00 0.00 0.00 32 1015.0
20260506193022 51 300 4.0 11.0 0.00 0.00 0.00 33 1015.2
20260506191522 51 280 4.0 11.0 0.00 0.00 0.00 33 1015.2
20260506190019 50 327 8.0 14.0 0.00 0.00 0.00 32 1015.2
20260506184516 49 284 7.0 17.0 0.00 0.00 0.00 32 1015.3
20260506183013 48 309 5.0 8.0 0.00 0.00 0.00 31 1015.6
20260506181511 47 311 2.0 6.0 0.00 0.00 0.00 33 1015.5
20260506180012 45 313 6.0 13.0 0.00 0.00 0.00 33 1015.7
20260506174504 44 295 4.0 10.0 0.00 0.00 0.00 36 1015.5
20260506173002 44 289 3.0 9.0 0.00 0.00 0.00 40 1015.5
20260506171617 43 317 4.0 10.0 0.00 0.00 0.00 39 1015.6
20260506170057 43 300 6.0 11.0 0.00 0.00 0.00 43 1015.4
20260506164606 43 292 3.0 5.0 0.00 0.00 0.00 43 1015.4
20260506163104 42 22 3.0 6.0 0.00 0.00 0.00 48 1015.4
20260506161614 40 277 1.0 5.0 0.00 0.00 0.00 56 1015.4
20260506160050 38 297 0.0 8.0 0.00 0.00 0.00 57 1015.3
20260506154551 40 216 3.0 12.0 0.00 0.00 0.00 56 1015.2
20260506153048 40 360 1.0 6.0 0.00 0.00 0.00 61 1015.1
20260506151542 39 127 3.0 8.0 0.00 0.00 0.00 64 1015.0
20260506150041 38 185 2.0 9.0 0.00 0.00 0.00 67 1014.8
20260506144538 37 250 3.0 10.0 0.00 0.00 0.00 68 1014.8
20260506143036 36 219 0.0 7.0 0.00 0.00 0.00 71 1014.8
20260506141531 35 116 2.0 7.0 0.00 0.00 0.00 73 1014.7
20260506140026 33 189 5.0 12.0 0.00 0.00 0.00 75 1014.7
20260506134523 30 140 0.0 1.0 0.00 0.00 0.00 76 1014.5
20260506133021 29 173 0.0 0.0 0.00 0.00 0.00 76 1014.3
20260506131529 28 173 0.0 1.0 0.00 0.00 0.00 73 1014.1
20260506130014 28 173 0.0 1.0 0.00 0.00 0.00 73 1013.5
20260506124512 28 173 0.0 3.0 0.00 0.00 0.00 73 1013.3
20260506123011 27 173 0.0 2.0 0.00 0.00 0.00 73 1013.2
20260506121512 27 173 0.0 1.0 0.00 0.00 0.00 74 1012.9
20260506120009 26 173 0.0 0.0 0.00 0.00 0.00 74 1012.5